TimeEST,TemperatureF,Dew PointF,Humidity,Sea Level PressureIn,VisibilityMPH,Wind Direction,Wind SpeedMPH,Gust SpeedMPH,PrecipitationIn,Events,Conditions,WindDirDegrees,DateUTC
12:51 AM,-2.0,-7.1,79,30.36,10.0,East,3.5,-,N/A,,Clear,80,2014-02-18 05:51:00
1:51 AM,-4.0,-9.0,79,30.37,8.0,Calm,Calm,-,N/A,,Clear,0,2014-02-18 06:51:00
2:51 AM,-2.9,-8.0,79,30.35,10.0,NNE,3.5,-,N/A,,Clear,20,2014-02-18 07:51:00
3:51 AM,-2.0,-7.1,79,30.36,10.0,Calm,Calm,-,N/A,,Clear,0,2014-02-18 08:51:00
4:51 AM,-2.0,-7.1,79,30.33,10.0,Calm,Calm,-,N/A,,Clear,0,2014-02-18 09:51:00
5:51 AM,1.0,-5.1,75,30.35,10.0,Calm,Calm,-,N/A,,Clear,0,2014-02-18 10:51:00
6:51 AM,1.9,-4.0,76,30.35,10.0,Calm,Calm,-,N/A,,Overcast,0,2014-02-18 11:51:00
7:51 AM,5.0,-4.0,66,30.33,10.0,NNW,4.6,-,N/A,,Overcast,330,2014-02-18 12:51:00
8:51 AM,7.0,-2.0,67,30.29,10.0,Calm,Calm,-,N/A,,Mostly Cloudy,0,2014-02-18 13:51:00
9:51 AM,10.9,-0.9,59,30.26,10.0,Calm,Calm,-,N/A,,Overcast,0,2014-02-18 14:51:00
10:22 AM,10.9,-0.0,61,30.23,2.5,Calm,Calm,-,0.00,Snow,Light Snow,0,2014-02-18 15:22:00
10:26 AM,10.9,1.0,64,30.23,1.2,Calm,Calm,-,0.00,Snow,Light Snow,0,2014-02-18 15:26:00
10:35 AM,10.9,3.0,70,30.22,0.5,Calm,Calm,-,0.00,Snow,Snow,0,2014-02-18 15:35:00
10:44 AM,10.9,5.0,77,30.22,0.2,Calm,Calm,-,0.01,Snow,Heavy Snow,0,2014-02-18 15:44:00
10:51 AM,10.9,6.1,81,30.25,0.2,Calm,Calm,-,0.01,Snow,Heavy Snow,0,2014-02-18 15:51:00
11:00 AM,12.0,7.0,80,30.20,0.5,Calm,Calm,-,0.01,Snow,Snow,0,2014-02-18 16:00:00
11:09 AM,12.0,7.0,80,30.20,1.0,Calm,Calm,-,0.01,Snow,Light Snow,0,2014-02-18 16:09:00
11:25 AM,12.0,7.0,80,30.19,0.8,NW,4.6,-,0.01,Snow,Light Snow,320,2014-02-18 16:25:00
11:51 AM,12.9,9.0,84,30.19,0.5,Calm,Calm,-,0.03,Fog-Snow,Snow,0,2014-02-18 16:51:00
12:08 PM,12.9,9.0,84,30.15,0.5,Calm,Calm,-,0.01,Fog-Snow,Snow,0,2014-02-18 17:08:00
12:49 PM,14.0,10.4,86,30.13,0.2,Calm,Calm,-,0.03,Fog-Snow,Snow,0,2014-02-18 17:49:00
12:51 PM,14.0,10.9,88,30.15,0.2,NW,3.5,-,0.03,Fog-Snow,Snow,310,2014-02-18 17:51:00
1:13 PM,15.1,12.0,88,30.10,0.2,NW,3.5,-,0.03,Fog-Snow,Heavy Snow,310,2014-02-18 18:13:00
1:51 PM,16.0,12.9,88,30.11,0.2,West,3.5,-,0.07,Fog-Snow,Heavy Snow,260,2014-02-18 18:51:00
2:12 PM,16.0,12.9,88,30.06,0.2,WNW,3.5,-,0.06,Fog-Snow,Heavy Snow,290,2014-02-18 19:12:00
2:51 PM,17.1,14.0,88,30.06,0.2,Calm,Calm,-,0.17,Fog-Snow,Heavy Snow,0,2014-02-18 19:51:00
3:21 PM,18.0,15.1,88,30.01,0.2,West,4.6,-,0.08,Fog-Snow,Heavy Snow,280,2014-02-18 20:21:00
3:51 PM,19.0,16.0,88,30.02,0.2,WNW,5.8,-,0.15,Fog-Snow,Snow,300,2014-02-18 20:51:00
4:51 PM,19.9,18.0,92,29.99,0.2,NW,5.8,-,0.10,Fog-Snow,Snow,310,2014-02-18 21:51:00
5:31 PM,19.9,18.0,92,29.96,0.5,NW,10.4,-,0.07,Fog-Snow,Snow,310,2014-02-18 22:31:00
5:48 PM,19.4,17.6,93,29.96,1.2,NNW,8.1,-,0.08,Snow,Light Snow,330,2014-02-18 22:48:00
5:51 PM,19.9,18.0,92,29.98,1.8,NW,8.1,-,0.08,Snow,Light Snow,320,2014-02-18 22:51:00
6:01 PM,19.9,19.0,96,29.95,2.0,NW,6.9,-,0.00,Snow,Light Snow,310,2014-02-18 23:01:00
6:25 PM,19.9,18.0,92,29.96,2.5,NW,10.4,-,0.01,Snow,Light Snow,320,2014-02-18 23:25:00
6:51 PM,21.0,19.0,92,29.99,2.5,NW,10.4,-,0.01,Snow,Light Snow,320,2014-02-18 23:51:00
7:06 PM,21.0,19.0,92,29.96,3.0,NW,12.7,-,0.00,Snow,Light Snow,320,2014-02-19 00:06:00
7:18 PM,21.0,19.0,92,29.96,2.5,NW,11.5,-,0.00,Snow,Light Snow,310,2014-02-19 00:18:00
7:40 PM,21.0,19.0,92,29.96,2.5,NW,10.4,-,0.00,Snow,Light Snow,320,2014-02-19 00:40:00
7:51 PM,21.9,19.0,89,29.98,2.0,NNW,8.1,-,0.01,Snow,Light Snow,330,2014-02-19 00:51:00
8:19 PM,21.9,19.9,92,29.96,3.0,WNW,8.1,-,0.00,Snow,Light Snow,300,2014-02-19 01:19:00
8:51 PM,23.0,19.9,88,29.99,6.0,NW,6.9,-,0.00,,Overcast,320,2014-02-19 01:51:00
9:51 PM,23.0,21.0,92,30.01,7.0,West,3.5,-,0.00,Snow,Light Snow,280,2014-02-19 02:51:00
10:51 PM,23.0,19.9,88,30.02,10.0,Calm,Calm,-,0.00,,Overcast,0,2014-02-19 03:51:00
11:06 PM,21.0,19.9,96,29.99,10.0,NE,3.5,-,N/A,,Mostly Cloudy,50,2014-02-19 04:06:00
11:51 PM,18.0,17.1,96,30.01,8.0,Calm,Calm,-,N/A,,Partly Cloudy,0,2014-02-19 04:51:00
11:57 PM,12.9,12.9,100,29.98,1.5,Calm,Calm,-,N/A,,Partly Cloudy,0,2014-02-19 04:57:00